Alliance, NE

12:17 PM MDT on March 28, 2017 (GMT -0600)
Alliance Municipal

Weather History for KAIA - April, 2013

Change the Weather History Date:

Wednesday, April 17, 2013

  Actual Average Record
Temperature  
Mean Temperature 25 °F 45 °F  
Max Temperature 28 °F 60 °F 84 °F (1948)
Min Temperature 22 °F 30 °F 15 °F (1999)
Degree Days  
Heating Degree Days 40 20  
Month to date heating degree days 500 371  
Since 1 July heating degree days 6532 6657  
Cooling Degree Days 0 0  
Month to date cooling degree days 0 0  
Year to date cooling degree days 0 0  
Moisture  
Dew Point 22 °F    
Average Humidity 87    
Maximum Humidity 92    
Minimum Humidity 81    
Precipitation  
Precipitation 0.00 in 0.05 in 1.21 in (2015)
Month to date precipitation 0.12 0.77  
Year to date precipitation 0.69 2.18  
Sea Level Pressure  
Sea Level Pressure 30.09 in    
Wind  
Wind Speed 16 mph (NNE)    
Max Wind Speed 25 mph    
Max Gust Speed 31 mph    
Visibility 4 miles    
Events Fog    
T = Trace of Precipitation, MM = Missing Value Source: NWS Daily Summary

Daily Weather History Graph

Daily Weather History Graph

Search for Another Location

Airport or City:

Trip Planner

Search our weather history database for the weather conditions in past years. The results will help you decide how hot, cold, wet, or windy it might be!

Date:

Astronomy

Apr. 17, 2013 Rise Set
Actual Time 6:07 AM MDT 7:34 PM MDT
Civil Twilight 5:37 AM MDT 8:04 PM MDT
Nautical Twilight 5:02 AM MDT 8:39 PM MDT
Astronomical Twilight 4:25 AM MDT 9:17 PM MDT
Moon 11:21 AM MDT (4/17) 1:16 AM MDT (4/17)
Length of Visible Light 14h 26m
Length of Day
13h 27m
Waxing Crescent, 43% of the Moon is Illuminated
Apr 17
Waxing Crescent
Apr 18
First Quarter
Apr 25
Full
May 2
Last Quarter
May 9
New

Hourly Weather History & Observations

Time (MDT) Temp. Windchill Dew Point Humidity Pressure Visibility Wind Dir Wind Speed Gust Speed Precip Events Conditions
12:53 AM 28.0 °F 17.0 °F 25.0 °F 88% 30.19 in 6.0 mi ENE 13.8 mph - N/A   Overcast
1:25 AM 28.4 °F 18.5 °F 26.6 °F 93% 30.09 in 8.0 mi ENE 11.5 mph - N/A   Overcast
1:53 AM 28.0 °F 16.5 °F 25.0 °F 88% 30.17 in 8.0 mi ENE 15.0 mph - N/A   Overcast
2:53 AM 27.0 °F 15.6 °F 25.0 °F 92% 30.15 in 7.0 mi ENE 13.8 mph - N/A   Overcast
3:53 AM 26.1 °F 13.6 °F 24.1 °F 92% 30.14 in 9.0 mi ENE 16.1 mph - N/A   Overcast
4:53 AM 26.1 °F 13.1 °F 24.1 °F 92% 30.13 in 10.0 mi ENE 17.3 mph - N/A   Overcast
5:53 AM 26.1 °F 14.0 °F 24.1 °F 92% 30.12 in 4.0 mi ENE 15.0 mph - N/A   Overcast
6:43 AM 26.6 °F 14.7 °F 24.8 °F 93% 30.05 in 2.5 mi ENE 15.0 mph - N/A   Overcast
6:51 AM 26.6 °F 15.2 °F 24.8 °F 93% 30.05 in 3.0 mi NE 13.8 mph - N/A   Overcast
6:53 AM 26.1 °F 14.0 °F 24.1 °F 92% 30.14 in 3.0 mi NE 15.0 mph - N/A   Overcast
7:07 AM 26.6 °F 16.2 °F 24.8 °F 93% 30.06 in 2.5 mi NE 11.5 mph - N/A   Overcast
7:53 AM 26.6 °F 16.2 °F 24.8 °F 93% 30.07 in 2.5 mi NE 11.5 mph - N/A   Overcast
8:15 AM 26.6 °F 15.2 °F 24.8 °F 93% 30.06 in 3.0 mi NE 13.8 mph - N/A   Overcast
8:53 AM 25.0 °F 11.3 °F 23.0 °F 92% 30.15 in 3.0 mi NE 18.4 mph 21.9 mph N/A   Overcast
9:53 AM 26.1 °F 13.1 °F 23.0 °F 88% 30.12 in 4.0 mi NE 17.3 mph - N/A   Overcast
10:53 AM 26.1 °F 13.6 °F 23.0 °F 88% 30.12 in 5.0 mi NNE 16.1 mph 25.3 mph N/A   Overcast
11:53 AM 26.1 °F 12.0 °F 23.0 °F 88% 30.11 in 10.0 mi NNE 20.7 mph - N/A   Overcast
12:14 PM 26.6 °F 14.3 °F 21.2 °F 80% 30.02 in 1.8 mi NNE 16.1 mph - N/A   Overcast
12:33 PM 26.6 °F 13.1 °F 21.2 °F 80% 30.01 in 1.0 mi NNE 19.6 mph - N/A   Overcast
12:42 PM 26.6 °F 13.8 °F 21.2 °F 80% 30.02 in 1.0 mi NNE 17.3 mph - N/A   Overcast
12:53 PM 26.1 °F 12.3 °F 21.9 °F 84% 30.12 in 1.0 mi NNE 19.6 mph - N/A   Overcast
1:01 PM 24.8 °F 11.1 °F 21.2 °F 86% 30.01 in 1.2 mi NNE 18.4 mph - N/A   Overcast
1:09 PM 26.6 °F 12.7 °F 21.2 °F 80% 30.02 in 0.8 mi North 20.7 mph 25.3 mph N/A   Overcast
1:30 PM 24.8 °F 10.7 °F 21.2 °F 86% 30.03 in 0.8 mi NNE 19.6 mph - N/A   Overcast
1:53 PM 26.1 °F 12.3 °F 21.9 °F 84% 30.12 in 0.2 mi North 19.6 mph 27.6 mph N/A Fog Light Freezing Fog
2:53 PM 26.1 °F 12.7 °F 21.9 °F 84% 30.13 in 1.0 mi NNE 18.4 mph - N/A   Overcast
3:01 PM 24.8 °F 9.6 °F 21.2 °F 86% 30.03 in 1.2 mi North 23.0 mph 31.1 mph N/A   Overcast
3:19 PM 24.8 °F 10.0 °F 21.2 °F 86% 30.03 in 1.5 mi NNE 21.9 mph - N/A   Overcast
3:35 PM 24.8 °F 10.3 °F 21.2 °F 86% 30.03 in 1.2 mi NNE 20.7 mph - N/A   Overcast
3:37 PM 24.8 °F 10.0 °F 21.2 °F 86% 30.03 in 1.5 mi NNE 21.9 mph - N/A   Overcast
3:46 PM 24.8 °F 12.4 °F 21.2 °F 86% 30.04 in 1.2 mi North 15.0 mph - N/A   Overcast
3:53 PM 25.0 °F 11.3 °F 21.0 °F 85% 30.13 in 1.0 mi North 18.4 mph - N/A   Overcast
4:08 PM 24.8 °F 11.1 °F 21.2 °F 86% 30.04 in 1.5 mi North 18.4 mph - N/A   Overcast
4:24 PM 24.8 °F 10.7 °F 21.2 °F 86% 30.04 in 1.8 mi North 19.6 mph - N/A   Overcast
4:35 PM 24.8 °F 10.3 °F 21.2 °F 86% 30.03 in 2.5 mi North 20.7 mph 27.6 mph N/A   Overcast
4:45 PM 24.8 °F 10.3 °F 19.4 °F 80% 30.03 in 4.0 mi North 20.7 mph - N/A   Overcast
4:53 PM 25.0 °F 10.9 °F 21.0 °F 85% 30.14 in 3.0 mi North 19.6 mph - N/A   Overcast
4:59 PM 24.8 °F 10.7 °F 21.2 °F 86% 30.04 in 1.8 mi North 19.6 mph 27.6 mph N/A   Overcast
5:17 PM 24.8 °F 10.0 °F 21.2 °F 86% 30.03 in 2.0 mi North 21.9 mph - N/A   Overcast
5:34 PM 24.8 °F 10.7 °F 21.2 °F 86% 30.06 in 2.5 mi North 19.6 mph 25.3 mph N/A   Overcast
5:41 PM 24.8 °F 10.7 °F 21.2 °F 86% 30.06 in 3.0 mi North 19.6 mph 27.6 mph N/A   Overcast
5:53 PM 25.0 °F 10.9 °F 21.0 °F 85% 30.18 in 4.0 mi North 19.6 mph - N/A   Overcast
6:53 PM 24.1 °F 9.4 °F 21.0 °F 88% 30.17 in 4.0 mi North 20.7 mph 25.3 mph N/A   Overcast
7:15 PM 24.8 °F 12.4 °F 21.2 °F 86% 30.10 in 2.0 mi North 15.0 mph - N/A   Overcast
7:32 PM 24.8 °F 12.4 °F 21.2 °F 86% 30.09 in 3.0 mi North 15.0 mph - N/A   Overcast
7:53 PM 24.1 °F 11.5 °F 21.0 °F 88% 30.20 in 4.0 mi North 15.0 mph - N/A   Overcast
8:53 PM 23.0 °F 10.6 °F 19.9 °F 88% 30.23 in 10.0 mi North 13.8 mph - N/A   Mostly Cloudy
9:53 PM 21.9 °F 9.8 °F 19.9 °F 92% 30.22 in 10.0 mi NNW 12.7 mph - N/A   Clear
10:53 PM 21.9 °F 10.4 °F 19.0 °F 89% 30.20 in 10.0 mi NNW 11.5 mph - N/A   Partly Cloudy
11:27 PM 23.0 °F 11.1 °F 19.4 °F 86% 30.09 in 10.0 mi NNW 12.7 mph - N/A   Overcast
11:53 PM 23.0 °F 11.1 °F 19.9 °F 88% 30.19 in 10.0 mi North 12.7 mph - N/A   Overcast